Location: Asheville, NC
(35.6000°N, 82.5500°W)
Time: 01:34:49
(UTC-04:00)

XW-2B - Pass Details

Date: 05 January 2018
Orbit: 511 x 529 km, 97.5° (Epoch: 25 April)

Event Time Altitude Azimuth Distance (km) Brightness Sun altitude
Rises 18:04:12 0° 175° (S) 2,649 ? -6.9°
Reaches altitude 10° 18:06:19 10° 179° (S) 1,766 ? -7.3°
Maximum altitude 18:10:04 60° 259° (W) 610 ? -8.0°
Drops below altitude 10° 18:13:53 10° 340° (NNW) 1,781 ? -8.7°
Sets 18:16:01 0° 345° (NNW) 2,674 ? -9.1°
